Regional Weather Roundup
Issued by NWS

Home | Current Version | Previous Version | Graphics & Text | Print | Product List | Glossary On
Versions: 1 2 3 4 5 6 7 8 9 10 11 12 13 14 15 16 17 18 19 20 21 22 23 24 25 26 27 28 29 30 31 32 33 34 35 36 37 38 39 40 41 42 43 44 45 46 47 48 49 50
607
ASUS44 KJAN 301510
RWRMS

MISSISSIPPI HOURLY WEATHER ROUNDUP
NATIONAL WEATHER SERVICE JACKSON MS
900 AM CST FRI JAN 30 2015

NOTE: "FAIR: INDICATES FEW OR NO CLOUDS BELOW 12,000 FEET WITH NO
SIGNIFICANT WEATHER AND/OR OBSTRUCTIONS TO VISIBILITY.

MSZ001>002-007>008-010>013-018>021-025>028-034>036-301600-
NORTHWEST MISSISSIPPI

CITY           SKY/WX    TMP DP  RH WIND       PRES   REMARKS
CLARKSDALE     FAIR      39  32  75 N14       30.52R WCI  31
CLEVELAND      FAIR      39  33  78 N12       30.52R WCI  32
GREENWOOD      SUNNY     41  32  70 N9        30.50R
GREENVILLE     SUNNY     42  32  67 N12       30.51R
GRENADA        FAIR      41  32  70 N7        30.49R
OXFORD         FAIR      37  27  65 NE13G18   30.49R WCI  29
TUNICA         SUNNY     37  32  81 N14       30.52R WCI  29
$$

MSZ003>006-009-014>017-022>024-029>033-037>039-301600-
NORTHEAST MISSISSIPPI

CITY           SKY/WX    TMP DP  RH WIND       PRES   REMARKS
COLUMBUS AFB   SUNNY     43  29  57 N13       30.45R
CORINTH        CLOUDY    39  27  60 N12       30.48R WCI  32
GOLDN TRIANGLE SUNNY     45  30  57 N9        30.45R
STARKVILLE     FAIR      41  32  70 N6        30.46R
TUPELO         SUNNY     41  27  57 NE21      30.46R
$$

MSZ040-058-301600-
CENTRAL MISSISSIPPI

CITY           SKY/WX    TMP DP  RH WIND       PRES   REMARKS
JACKSON INTL   MOSUNNY   44  30  57 N15G22    30.47R
JACKSON HAWKNS SUNNY     44  29  55 NE12      30.47R
MERIDIAN KEY   SUNNY     45  30  55 N15G22    30.44R
MERIDIAN NAS   MOSUNNY   45  29  53 N12       30.45R
RAYMOND        FAIR      43  37  81 MISG      30.47S
VICKSBURG      SUNNY     44  32  62 NE13      30.49R
$$

MSZ059>079-301600-
SOUTH MISSISSIPPI

CITY           SKY/WX    TMP DP  RH WIND       PRES   REMARKS
BROOKHAVEN     FAIR      41  32  70 N12       30.46R
HATTIESBURG    MOSUNNY   46  32  58 N14       30.44R
MCCOMB         SUNNY     44  31  60 N9G20     30.43R
NATCHEZ        MOSUNNY   43  30  61 NE12G21   30.45S
PINE BELT      MOSUNNY   45  30  57 N14G21    30.44R
$$

MSZ080>082-301600-
COASTAL MISSISSIPPI

CITY           SKY/WX    TMP DP  RH WIND       PRES   REMARKS
BAY ST LOUIS   SUNNY     48  36  61 N14G21    30.39R
BILOXI         PTSUNNY   48  37  64 NE17G25   30.38R
PASCAGOULA     MOSUNNY   48  34  58 N15G26    30.38R
GULFPORT       PTSUNNY   48  36  63 N18G24    30.38R
$$



USA.gov is the U.S. government's official web portal to all federal, state and local government web resources and services.